This demonstration page uses our WeatherBlox Daily Observations layout. Learn more.

Left ArrowRight Arrow

Hourly Observations for May 13, 2015

Temp ( °F °C ) Dew Point ( °F °C ) Humidity (%) Winds ( mph kmh ) Pressure ( in mb ) Visibility ( mi km ) Precip ( " mm )
12:53 am 00:53 Mostly Clear 48 8.9 44 6.7 86 86 NNW 3 6 30.27 1025 10 16 0.00 0.00
1:53 am 01:53 Clear 46 7.8 43 6.1 89 89 Calm 30.27 1025 10 16 0.00 0.00
2:53 am 02:53 Clear 46 7.8 43 6.1 89 89 Calm 30.28 1025 10 16 0.00 0.00
3:53 am 03:53 Clear 44 6.7 42 5.6 93 93 Calm 30.29 1026 10 16 0.00 0.00
4:53 am 04:53 Clear 42 5.6 40 4.4 92 92 Calm 30.31 1027 10 16 0.00 0.00
5:53 am 05:53 Clear 41 5 39 3.9 93 93 Calm 30.32 1027 10 16 0.00 0.00
6:53 am 06:53 Sunny 42 5.6 41 5 96 96 Calm 30.35 1028 10 16 0.00 0.00
7:53 am 07:53 Sunny 50 10 44 6.7 80 80 NNW 6 9 30.37 1029 10 16 0.00 0.00
8:53 am 08:53 Sunny 54 12.2 43 6.1 67 67 NNE 7 11 30.40 1029 10 16 0.00 0.00
9:53 am 09:53 Sunny 56 13.3 39 3.9 53 53 NNW 13 20 30.40 1030 10 16 0.00 0.00
10:53 am 10:53 Sunny 59 15 38 3.3 46 46 N 10 17 30.40 1030 10 16 0.00 0.00
11:53 am 11:53 Sunny 61 16.1 39 3.9 44 44 N 8 13 30.41 1030 10 16 0.00 0.00
12:53 pm 12:53 Sunny 62 16.7 39 3.9 43 43 N 10 17 30.41 1030 10 16 0.00 0.00
1:53 pm 13:53 Sunny 65 18.3 40 4.4 40 40 N 10 17 30.38 1029 10 16 0.00 0.00
2:53 pm 14:53 Sunny 65 18.3 40 4.4 40 40 N 10 17 30.36 1028 10 16 0.00 0.00
3:53 pm 15:53 Sunny 67 19.4 41 5 39 39 VRB 5 7 30.35 1028 10 16 0.00 0.00
4:53 pm 16:53 Sunny 67 19.4 40 4.4 37 37 NNE 7 11 30.35 1028 10 16 0.00 0.00
5:53 pm 17:53 Sunny 67 19.4 40 4.4 37 37 Calm 30.34 1028 10 16 0.00 0.00
6:53 pm 18:53 Sunny 65 18.3 41 5 42 42 NE 8 13 30.34 1027 10 16 0.00 0.00
7:53 pm 19:53 Sunny 63 17.2 41 5 45 45 NNE 7 11 30.33 1027 10 16 0.00 0.00
8:53 pm 20:53 Clear 56 13.3 45 7.2 67 67 NNE 3 6 30.35 1028 10 16 0.00 0.00
9:53 pm 21:53 Clear 52 11.1 44 6.7 75 75 NNE 6 9 30.37 1028 10 16 0.00 0.00
10:53 pm 22:53 Clear 53 11.7 43 6.1 69 69 NNE 5 7 30.39 1029 10 16 0.00 0.00
11:53 pm 23:53 Clear 55 12.8 42 5.6 62 62 ENE 8 13 30.40 1030 10 16 0.00 0.00

Powered by AerisWeather